Weather in Ogni

Russia / Altai Krai     51°54′43″N   83°32′15″E
temp.,
°C
wind,
m/s
gust,
m/s
humid.,
%
clouds,
%
prec.,
mm/h
press.,
hPa
HPBL,
m
6 march, sat
sat601:00−4sw9207459 0.0 1028953
04:00−4sw92070100 0.0 1026876
07:00−5sw62066100 0.0 1026800
10:00−3sw82068100 0.0 10251016
13:00−1sw112067100 0.0 10221203
16:000sw9186976 0.0 10201190
19:00−1sw7187288 0.0 1019794
22:00−4sw5187499 0.0 1019516
7 march, sun
sun701:00−5sw4137799 0.0 1019337
04:00−3sw61775100 0.0 1018629
07:00−3wsw61677100 0.0 1019591
10:00−3wsw61479100 0.0 1020645
13:00−1wsw71278100 0.0 1020787
16:00−1wsw61181100 0.0 1021742
19:00−4wsw3687100 0.0 1022153
22:00−6s2286100 0.0 102321
8 march, mon
mon801:00−7sse1280100 0.0 102321
04:00−6sse128098 0.0 102221
07:00−6sse127896 0.0 102121
10:00−3sse1178100 0.0 101921
13:000ssw119896 0.0 101645
16:00+2sw5178569 0.0 1014797
19:00+2sw10207284 0.0 1015865
22:00+1sw112078100 0.0 1017834
9 march, tue
tue901:000sw9179597 0.1 1020919
04:00−1wsw71297100 1.1 1023676
07:00−8w4109295 1.8 1027276
10:00−9sw37890 0.0 1029260
13:00−6wsw238218 0.0 1028335
16:00−4ene228883 0.1 1026241
19:00−5e349689 0.1 1024122
22:00−4ese1297100 0.3 102333
10 march, wed
wed1001:00−3s229498 0.5 102121
04:00−4s238691 0.0 101925
07:00−4s338487 0.0 101833
10:00−1sse128464 0.0 101724
13:00+1e1210082 0.0 101527
16:00+1ene23100100 0.0 101369
19:000e2385100 0.0 101033
22:00−1sse227894 0.0 100822